Regional Weather Roundup
Issued by NWS

Home | Current Version | Previous Version | Graphics & Text | Print | Product List | Glossary On
Versions: 1 2 3 4 5 6 7 8 9 10 11 12 13 14 15 16 17 18 19 20 21 22 23 24 25 26 27 28 29 30 31 32 33 34 35 36 37 38 39 40 41 42 43 44 45 46 47 48 49 50
000
ASUS43 KOAX 030202
RWRNE

WEATHER ROUNDUP FOR NEBRASKA
NATIONAL WEATHER SERVICE OMAHA NE
900 PM CDT THU JUL 02 2015

NOTES: SATELLITE DATA IS BEING USED TO AUGMENT CLOUD COVER ABOVE
       12000 FEET.
       "FAIR" INDICATES FEW OR NO CLOUDS BELOW 12,000 FEET WITH NO
       SIGNIFICANT WEATHER AND/OR OBSTRUCTIONS TO VISIBILITY.

  * THESE STATIONS DO NOT REPORT WEATHER SUCH AS RAIN...SNOW OR FOG.

NEZ001>004-019>022-054>056-030300-
NEBRASKA PANHANDLE

CITY           SKY/WX    TMP DP  RH WIND       PRES   REMARKS
SCOTTSBLUFF    CLEAR     76  59  55 NE5       30.09R
ALLIANCE       CLEAR     72  61  68 N7        30.09R
CHADRON        PTCLDY    74  63  68 E3        30.07R
KIMBALL          N/A    N/A N/A N/A MISG        N/A
SIDNEY         CLEAR     74  58  57 NE5       30.12R
$$

NEZ057>060-069>072-079>082-030300-
SOUTHWEST NEBRASKA

CITY           SKY/WX    TMP DP  RH WIND       PRES   REMARKS
NORTH PLATTE   CLEAR     73  59  61 N6        30.02R
IMPERIAL       CLEAR     75  59  57 N7        30.05R
LEXINGTON      CLEAR     73  61  66 N6        29.99R
MCCOOK         CLEAR     77  61  57 N7        30.00R
$$

NEZ005>010-023>029-035>040-094-030300-
NORTH CENTRAL NEBRASKA

CITY           SKY/WX    TMP DP  RH WIND       PRES   REMARKS
VALENTINE      PTCLDY    73  60  63 NE5       30.01R
AINSWORTH      CLEAR     71  63  75 NE7       30.02R
BROKEN BOW     CLEAR     74  60  61 N7        29.99R
O`NEILL        MOCLDY    68  65  90 E6        30.00R
ORD            PTCLDY    69  63  81 E6        29.97R
$$

NEZ041-046>049-061>064-073>077-083>087-030300-
SOUTH CENTRAL NEBRASKA

CITY           SKY/WX    TMP DP  RH WIND       PRES   REMARKS
GRAND ISLAND   PTCLDY    70  66  87 NE16      29.96R
AURORA         MOCLDY    69  68  96 N14       29.95R
HASTINGS       CLEAR     72  65  78 N8        29.95R
KEARNEY *      CLEAR     73  63  68 NE10      29.97R
$$

NEZ011>018-030>034-042>045-030300-
NORTHEAST NEBRASKA

CITY           SKY/WX    TMP DP  RH WIND       PRES   REMARKS
NORFOLK        CLOUDY    65  63  93 E5        29.97S FOG
ALBION         CLOUDY    66  61  84 E8        29.99R
BLAIR          CLOUDY    67  62  84 NE7       29.95S
COLUMBUS *     CLOUDY    64  61  88 E6        29.96R
FREMONT        RAIN      68  64  85 NE5       29.96S
TEKAMAH        CLOUDY    69  62  78 E3        29.96R
$$

NEZ050>053-065>068-078-088>093-030300-
SOUTHEAST NEBRASKA

CITY           SKY/WX    TMP DP  RH WIND       PRES   REMARKS
LINCOLN        CLOUDY    70  64  81 E8        29.93R
OMAHA EPPLEY   CLOUDY    69  62  78 E3        29.95R
BEATRICE       CLOUDY    71  67  88 E7        29.91R
FALLS CITY     CLOUDY    69  66  90 E9        29.91R
NEBRASKA CITY  CLOUDY    67  66  94 E3        29.93S
PLATTSMOUTH    CLOUDY    68  63  83 E6        29.94S
$$

NEZ044-045-051>053-067-030300-
OMAHA AREA

CITY           SKY/WX    TMP DP  RH WIND       PRES   REMARKS
OMAHA EPPLEY   CLOUDY    69  62  78 E3        29.95R
BLAIR          CLOUDY    67  62  84 NE7       29.95S
FREMONT        RAIN      68  64  85 NE5       29.96S
MILLARD        PTCLDY    70  62  76 E3        29.94R
OFFUTT AFB     CLOUDY    69  64  83 NE5       29.93S
PLATTSMOUTH    CLOUDY    68  63  83 E6        29.94S
WAHOO          CLOUDY    68  63  83 E6        29.95R
$$



USA.gov is the U.S. government's official web portal to all federal, state and local government web resources and services.